Погода в Шаосине

Китай     29°59′54″N   120°34′55″E
темп.,
°C
ветер,
м/с
пор.,
м/с
влажн.,
%
обл.,
%
осадки,
мм/ч
давл.,
гПа
погр.,
м
8 марта, пн
пн823:00+7зсз1291100 0.0 1028213
02:00+7зсз1190100 0.1 1027159
05:00+8ссв1291100 0.0 1026192
08:00+8св1293100 0.1 1028188
11:00+11в2481100 0.1 1028592
14:00+14в236599 0.1 1025917
17:00+13всв357299 0.0 1024470
20:00+10всв3680100 0.1 1026276
9 марта, вт
вт923:00+10всв2483100 0.0 1025214
02:00+10св1185100 0.1 1025139
05:00+10св118899 0.1 1024145
08:00+10всв118599 0.2 1026236
11:00+15с116683 0.0 1026671
14:00+15ссв226388 0.0 1024779
17:00+13св347178 0.0 1025523
20:00+11всв248055 0.0 1027251
10 марта, ср
ср1023:00+10св248211 0.0 1028191
02:00+9св138819 0.0 1027197
05:00+8всв139214 0.0 1027197
08:00+10в248214 0.0 1028356
11:00+15в34563 0.0 10281003
14:00+18в345124 0.0 10251241
17:00+17всв355756 0.0 1024568
20:00+13в366556 0.0 1024233
11 марта, чт
чт1123:00+12в126777 0.0 1024125
02:00+11вюв117889 0.7 1023164
05:00+10вюв1189100 3.3 1022208
08:00+10юв1285100 4.4 1024276
11:00+15зюз137192 0.0 1024647
14:00+16з227095 0.0 1022654
17:00+16ссз127298 0.0 1021592
20:00+14ссв248099 0.0 1023313
12 марта, пт
пт1223:00+13с2479100 0.0 1024350
02:00+12ссз1279100 0.0 1024244
05:00+12св1281100 0.0 1024224
08:00+13ссв127991 0.0 1025450
11:00+15св226895 0.0 1025709
14:00+16св336597 0.0 1023749
17:00+15всв356864 0.0 1022712
20:00+13всв247876 0.0 1024246